Change the Weather History Date:

Tuesday, February 25, 2014

  Actual Average (KTYS) Record (KTYS)
Temperature  
Mean Temperature 43 °F 45 °F  
Max Temperature 57 °F 55 °F 76 °F (1918)
Min Temperature 29 °F 35 °F 5 °F (1967)
Degree Days  
Heating Degree Days 22 20  
Month to date heating degree days 576  
Since 1 July heating degree days 2838  
Cooling Degree Days 0 0  
Month to date cooling degree days 0  
Year to date cooling degree days 0  
Moisture  
Dew Point 28 °F    
Average Humidity 62    
Maximum Humidity 88    
Minimum Humidity 33    
Precipitation  
Precipitation 0.00 in 0.15 in 1.93 in (1934)
Month to date precipitation 3.81  
Year to date precipitation 8.13  
Snow  
Snow 0.00 in 0.10 in - ()
Month to date snowfall 1.5  
Since 1 July snowfall 5.0  
Snow Depth -    
Sea Level Pressure  
Sea Level Pressure 30.01 in    
Wind  
Wind Speed 2 mph (WSW)    
Max Wind Speed 18 mph    
Max Gust Speed 24 mph    
Visibility 10 miles    
Events      
T = Trace of Precipitation, MM = Missing Value Source: NWS Daily Summary

Daily Weather History Graph

Daily Weather History Graph

Search for Another Location

Airport or City:

Trip Planner

Search our weather history database for the weather conditions in past years. The results will help you decide how hot, cold, wet, or windy it might be!

Date:

Astronomy

Feb. 25, 2014 Rise Set
Actual Time 7:10 AM EST 6:27 PM EST
Civil Twilight 6:44 AM EST 6:52 PM EST
Nautical Twilight 6:15 AM EST 7:22 PM EST
Astronomical Twilight 5:45 AM EST 7:51 PM EST
Moon 3:57 AM EST (2/25) 2:37 PM EST (2/25)
Length of Visible Light 12h 08m
Length of Day
11h 17m
Waning Crescent, 18% of the Moon is Illuminated
Feb 25
Waning Crescent
Mar 1
New
Mar 8
First Quarter
Mar 16
Full
Mar 23
Last Quarter

Hourly Weather History & Observations

Time (EST) Temp. Windchill Dew Point Humidity Pressure Visibility Wind Dir Wind Speed Gust Speed Precip Events Conditions
12:15 AM 30.2 °F - 25.2 °F 82% 30.08 in 10.0 mi Calm Calm - N/A   Clear
12:35 AM 30.6 °F - 24.4 °F 78% 30.08 in 10.0 mi Calm Calm - N/A   Clear
12:55 AM 29.1 °F - 23.9 °F 81% 30.08 in 10.0 mi Calm Calm - N/A   Clear
1:15 AM 29.3 °F - 24.3 °F 81% 30.08 in 10.0 mi Calm Calm - N/A   Mostly Cloudy
1:35 AM 29.7 °F - 25.7 °F 85% 30.08 in 10.0 mi Calm Calm - N/A   Scattered Clouds
1:55 AM 30.0 °F - 25.5 °F 83% 30.08 in 10.0 mi Calm Calm - N/A   Overcast
2:15 AM 30.2 °F - 26.4 °F 86% 30.08 in 10.0 mi Calm Calm - N/A   Overcast
2:30 AM 30.2 °F - 25.7 °F 83% 30.08 in 10.0 mi Calm Calm - N/A   Overcast
2:55 AM 31.3 °F - 26.1 °F 81% 30.07 in 10.0 mi Calm Calm - N/A   Mostly Cloudy
3:15 AM 31.5 °F - 26.4 °F 82% 30.07 in 10.0 mi Calm Calm - N/A   Mostly Cloudy
3:17 AM 30.2 °F - 26.6 °F 86% 30.07 in 10.0 mi Calm Calm - N/A   Mostly Cloudy
4:50 AM 32.2 °F - 28.2 °F 85% 30.05 in 10.0 mi Calm Calm - N/A   Overcast
5:15 AM 32.5 °F 29.3 °F 29.3 °F 88% 30.03 in 10.0 mi WNW 3.5 mph - N/A   Overcast
5:35 AM 33.3 °F - 28.4 °F 82% 30.05 in 10.0 mi Calm Calm - N/A   Overcast
5:55 AM 33.6 °F - 29.1 °F 84% 30.05 in 10.0 mi Calm Calm - N/A   Overcast
6:15 AM 34.2 °F - 29.5 °F 83% 30.05 in 10.0 mi Calm Calm - N/A   Overcast
6:35 AM 34.7 °F - 29.3 °F 81% 30.06 in 10.0 mi Calm Calm - N/A   Overcast
6:55 AM 34.9 °F 29.9 °F 30.0 °F 82% 30.07 in 10.0 mi SW 5.8 mph - N/A   Overcast
7:15 AM 34.7 °F - 30.9 °F 86% 30.07 in 10.0 mi Calm Calm - N/A   Overcast
7:35 AM 35.1 °F 31.0 °F 29.5 °F 80% 30.09 in 10.0 mi SW 4.6 mph - N/A   Overcast
7:55 AM 35.8 °F - 29.3 °F 77% 30.08 in 10.0 mi Calm Calm - N/A   Overcast
8:15 AM 36.7 °F - 30.0 °F 77% 30.06 in 10.0 mi Calm Calm - N/A   Overcast
8:35 AM 37.0 °F - 30.6 °F 77% 30.08 in 10.0 mi Calm Calm - N/A   Overcast
8:55 AM 37.8 °F 35.3 °F 29.8 °F 73% 30.09 in 10.0 mi East 3.5 mph - N/A   Overcast
9:15 AM 39.2 °F - 29.3 °F 68% 30.08 in 10.0 mi Calm Calm - N/A   Overcast
9:30 AM 39.6 °F - 29.1 °F 66% 30.09 in 10.0 mi Calm Calm - N/A   Overcast
9:55 AM 41.4 °F - 27.7 °F 58% 30.08 in 10.0 mi Calm Calm - N/A   Overcast
10:15 AM 43.9 °F - 26.6 °F 51% 30.07 in 10.0 mi Calm Calm - N/A   Overcast
10:35 AM 44.6 °F - 27.0 °F 50% 30.07 in 10.0 mi Calm Calm - N/A   Overcast
10:55 AM 46.9 °F - 27.5 °F 47% 30.06 in 10.0 mi Calm Calm - N/A   Overcast
11:15 AM 50.0 °F - 28.2 °F 43% 30.06 in 10.0 mi Calm Calm - N/A   Overcast
11:35 AM 50.9 °F - 29.1 °F 43% 30.05 in 10.0 mi West 4.6 mph - N/A   Overcast
12:15 PM 53.4 °F - 30.0 °F 41% 30.03 in 10.0 mi SW 4.6 mph - N/A   Scattered Clouds
12:35 PM 55.9 °F - 31.6 °F 40% 30.00 in 10.0 mi WSW 8.1 mph - N/A   Clear
12:55 PM 57.7 °F - 34.9 °F 42% 29.99 in 10.0 mi West 16.1 mph 21.9 mph N/A   Clear
1:15 PM 57.6 °F - 34.2 °F 41% 29.98 in 10.0 mi WSW 15.0 mph 24.2 mph N/A   Clear
1:35 PM 57.6 °F - 32.4 °F 39% 29.97 in 10.0 mi SW 13.8 mph 23.0 mph N/A   Clear
1:55 PM 57.7 °F - 32.0 °F 38% 29.96 in 10.0 mi WSW 12.7 mph 19.6 mph N/A   Clear
2:15 PM 56.3 °F - 31.1 °F 38% 29.96 in 10.0 mi SW 13.8 mph 20.7 mph N/A   Clear
2:35 PM 56.5 °F - 31.8 °F 39% 29.95 in 10.0 mi WSW 18.4 mph - N/A   Clear
2:55 PM 55.0 °F - 30.2 °F 39% 29.95 in 10.0 mi SW 15.0 mph - N/A   Clear
3:15 PM 55.2 °F - 30.4 °F 39% 29.95 in 10.0 mi SW 12.7 mph - N/A   Clear
3:35 PM 57.0 °F - 29.1 °F 35% 29.94 in 10.0 mi SW 8.1 mph 17.3 mph N/A   Clear
3:55 PM 55.9 °F - 27.3 °F 33% 29.94 in 10.0 mi WSW 8.1 mph - N/A   Clear
4:15 PM 54.7 °F - 27.5 °F 35% 29.93 in 10.0 mi SW 10.4 mph 17.3 mph N/A   Clear
4:35 PM 54.3 °F - 28.6 °F 37% 29.93 in 10.0 mi WSW 10.4 mph - N/A   Clear
4:55 PM 53.2 °F - 27.1 °F 37% 29.93 in 10.0 mi WSW 8.1 mph - N/A   Clear
5:15 PM 52.5 °F - 26.4 °F 36% 29.94 in 10.0 mi SW 6.9 mph - N/A   Clear
5:35 PM 51.8 °F - 26.6 °F 38% 29.94 in 10.0 mi WSW 6.9 mph - N/A   Clear
5:55 PM 51.1 °F - 26.4 °F 38% 29.95 in 10.0 mi SW 6.9 mph - N/A   Clear
6:15 PM 49.1 °F - 28.9 °F 46% 29.96 in 10.0 mi NW 4.6 mph - N/A   Clear
6:35 PM 47.8 °F - 24.4 °F 40% 29.96 in 10.0 mi NNW 8.1 mph - N/A   Clear
6:55 PM 46.2 °F 42.2 °F 24.3 °F 42% 29.96 in 10.0 mi NNW 8.1 mph - N/A   Clear
7:15 PM 43.2 °F - 25.7 °F 50% 29.97 in 10.0 mi Calm Calm - N/A   Clear
7:35 PM 42.6 °F - 25.5 °F 51% 29.98 in 10.0 mi Calm Calm - N/A   Clear
7:55 PM 39.7 °F - 26.1 °F 58% 29.98 in 10.0 mi Calm Calm - N/A   Clear
8:15 PM 38.7 °F - 26.4 °F 61% 29.98 in 10.0 mi Calm Calm - N/A   Clear
8:35 PM 38.1 °F - 25.9 °F 61% 29.98 in 10.0 mi Calm Calm - N/A   Clear
8:55 PM 36.0 °F - 27.9 °F 72% 29.98 in 10.0 mi Calm Calm - N/A   Clear
9:15 PM 35.1 °F - 25.9 °F 69% 29.98 in 10.0 mi Calm Calm - N/A   Clear
9:35 PM 34.5 °F - 25.5 °F 70% 29.98 in 10.0 mi Calm Calm - N/A   Clear
9:55 PM 34.2 °F - 26.8 °F 74% 29.98 in 10.0 mi Calm Calm - N/A   Clear
10:15 PM 33.4 °F - 25.7 °F 73% 29.98 in 10.0 mi Calm Calm - N/A   Clear
10:35 PM 33.1 °F - 25.3 °F 73% 29.98 in 10.0 mi Calm Calm - N/A   Clear
10:55 PM 32.5 °F - 27.3 °F 81% 29.98 in 10.0 mi Calm Calm - N/A   Clear
11:15 PM 30.6 °F - 25.7 °F 82% 29.97 in 10.0 mi Calm Calm - N/A   Clear
11:35 PM 31.1 °F - 24.4 °F 76% 29.95 in 10.0 mi Calm Calm - N/A   Clear
11:55 PM 31.1 °F - 25.0 °F 78% 29.92 in 10.0 mi Calm Calm - N/A   Clear